Wind_Speed
22 20 18 15 10 13 14 12 12 11 9 8 8 10 11 12 13 13 13 12 12 11 12 13 13 12 12 12 12 12 14 14 14
27 24 22 19 16 12 14 16 14 14 13 11 10 11 12 13 14 14 15 14 14 13 13 14 15 14 14 14 14 14 15 16 17
27 27 26 25 22 19 15 15 18 16 16 15 14 13 13 14 15 16 17 17 17 16 16 15 16 17 17 16 16 16 17 17 19
31 29 30 29 28 24 21 17 17 20 18 18 17 17 16 16 17 18 19 19 20 20 19 18 18 19 20 19 19 20 19 20 20
31 30 30 31 30 27 26 24 20 20 22 21 21 20 20 20 19 20 21 21 22 23 22 22 21 21 22 23 22 22 23 24 24
28 31 31 30 30 30 29 30 28 25 23 24 23 24 23 23 23 22 23 24 24 25 25 25 24 25 25 25 26 25 25 25 26
28 28 29 32 35 35 32 29 30 30 27 24 25 26 26 26 25 24 25 26 25 26 27 27 26 27 27 28 28 28 28 27 25
29 29 27 26 28 33 36 34 31 31 33 30 28 27 27 27 28 27 27 28 27 27 28 28 29 29 29 29 30 31 30 30 28
32 28 28 28 28 29 31 34 35 34 34 37 36 31 30 30 30 30 31 30 29 30 30 30 30 30 31 30 31 32 33 32 30
35 33 31 31 29 28 28 32 36 38 39 38 37 35 35 33 32 33 33 33 32 32 33 34 33 32 33 32 32 33 35 36 31
40 38 35 34 33 31 29 31 35 37 39 40 36 36 40 38 37 35 35 35 34 35 35 36 36 35 35 35 34 35 37 38 34
47 45 43 39 36 36 33 29 34 36 40 43 48 43 42 44 42 40 37 36 37 38 39 40 39 38 38 37 37 38 38 40 38
53 51 48 46 42 39 38 36 34 36 36 38 40 40 43 42 45 44 42 40 40 41 41 42 42 41 41 40 40 40 39 41 41
57 54 52 48 47 44 43 43 41 40 34 36 37 43 44 45 45 45 44 45 45 43 44 45 45 45 44 43 42 42 43 43 41
59 57 54 53 51 50 47 47 45 47 45 40 43 37 42 44 48 44 48 47 49 46 46 48 49 48 48 46 45 46 46 44 44
59 59 57 56 52 50 50 50 49 47 49 45 44 46 48 51 52 52 52 51 51 50 50 51 52 51 49 51 49 48 47 45 45
60 60 58 57 56 54 51 52 52 52 49 49 49 49 55 57 51 55 55 53 56 47 55 61 62 57 56 53 50 52 49 48 48
57 58 58 57 56 54 51 52 53 54 53 51 52 55 55 56 60 56 56 57 52 49 55 64 56 60 66 58 52 55 52 52 50
57 56 57 55 54 52 52 52 53 55 56 57 56 57 59 58 57 60 58 59 62 55 54 57 57 54 52 57 58 56 57 57 61
53 57 56 54 53 53 52 52 54 57 59 61 62 62 63 62 62 60 62 64 67 64 63 55 61 65 59 63 63 60 62 63 51
Wind_Direction
255 261 267 274 276 264 257 265 257 258 259 261 265 260 249 246 247 247 250 261 274 285 295 303 310 318 325 328 329 334 336 340 340
263 258 258 262 266 268 262 257 260 257 260 262 263 261 261 256 251 252 254 255 260 272 282 293 302 308 314 318 319 323 323 329 330
264 266 266 262 260 261 261 257 256 259 261 265 268 265 263 261 258 255 256 257 259 264 273 282 290 298 302 306 310 312 315 319 322
260 262 265 267 267 260 260 259 257 256 260 265 266 267 266 263 262 261 261 261 261 263 268 275 283 289 293 297 301 305 308 309 311
260 259 260 263 264 266 263 261 258 256 257 260 264 267 269 268 265 264 262 262 263 264 267 272 277 282 286 291 294 298 301 303 309
265 262 260 262 265 268 266 264 262 258 255 256 258 263 265 269 270 269 268 267 266 265 266 269 274 278 283 287 290 291 293 299 303
265 264 263 262 265 266 264 263 261 263 256 256 257 258 263 265 269 272 272 272 271 270 271 271 273 277 280 284 287 290 293 294 296
266 261 261 264 266 264 262 264 258 260 262 255 254 256 259 264 266 268 271 272 272 272 272 272 274 275 278 282 285 288 291 293 297
260 258 259 262 267 265 265 262 260 256 258 261 256 254 256 260 263 265 267 270 272 272 272 272 273 276 278 280 283 287 290 290 294
251 253 253 259 261 264 268 268 264 261 262 258 258 257 258 258 259 261 264 266 268 271 272 273 274 275 277 278 282 285 289 290 292
250 250 249 255 256 257 261 267 264 261 262 260 253 261 267 261 258 259 262 266 268 269 270 271 273 275 276 278 280 281 282 287 292
248 249 252 253 251 255 255 260 265 265 262 257 262 268 264 263 260 259 260 264 267 270 271 271 272 273 275 277 278 280 284 288 291
248 248 250 253 255 256 257 255 259 267 265 259 260 261 268 265 263 264 263 262 265 268 270 272 272 272 273 274 276 279 281 285 287
250 250 250 250 250 253 255 256 257 265 267 267 267 264 264 264 262 262 262 264 263 263 266 268 271 271 272 274 275 276 277 277 283
252 253 253 251 250 252 255 257 259 261 264 268 265 272 270 267 265 267 266 260 261 260 262 265 267 269 270 272 273 275 275 278 281
253 253 253 254 253 252 255 256 259 262 264 263 258 264 260 264 268 266 270 266 270 261 261 266 266 266 268 268 270 272 274 276 275
253 254 255 255 255 254 253 255 258 260 264 265 265 260 261 266 269 268 270 268 274 279 261 286 263 260 262 264 268 270 272 272 273
252 254 256 255 256 257 258 257 256 259 262 265 268 268 270 268 267 272 270 268 274 276 273 274 281 268 272 262 262 268 269 271 271
252 253 255 257 258 259 258 258 258 260 263 265 268 269 270 270 270 269 267 266 266 268 272 277 277 286 290 280 263 264 265 265 270
255 254 254 256 257 258 259 259 260 263 265 267 268 269 269 272 273 273 270 269 268 268 269 276 277 280 289 289 274 258 259 264 278
Height
5864 5864 5866 5867 5867 5867 5866 5866 5866 5865 5865 5865 5865 5865 5865 5865 5865 5865 5866 5867 5868 5868 5868 5867 5866 5865 5864 5863 5862 5861 5860 5859 5858
5861 5861 5862 5863 5864 5865 5864 5864 5864 5864 5864 5863 5863 5863 5864 5864 5863 5864 5864 5864 5865 5865 5865 5865 5865 5864 5863 5861 5860 5859 5858 5857 5855
5857 5858 5859 5860 5860 5861 5862 5861 5861 5862 5862 5862 5862 5861 5861 5862 5862 5861 5862 5862 5862 5862 5862 5862 5862 5862 5861 5860 5858 5858 5856 5855 5854
5852 5854 5854 5855 5857 5857 5858 5858 5858 5859 5859 5860 5859 5859 5859 5859 5859 5859 5859 5859 5859 5859 5859 5859 5859 5859 5858 5857 5856 5855 5854 5852 5851
5846 5848 5849 5850 5852 5854 5855 5855 5855 5855 5855 5856 5857 5857 5857 5856 5856 5856 5856 5856 5856 5856 5856 5856 5855 5855 5854 5853 5853 5852 5850 5849 5848
5840 5842 5844 5845 5846 5848 5850 5850 5851 5851 5851 5851 5851 5852 5853 5853 5853 5853 5852 5852 5852 5852 5852 5851 5851 5851 5850 5849 5848 5847 5846 5845 5844
5835 5836 5838 5839 5840 5842 5843 5844 5846 5847 5847 5847 5847 5847 5848 5848 5849 5849 5848 5848 5848 5848 5848 5847 5846 5846 5846 5845 5844 5843 5842 5841 5840
5830 5831 5831 5833 5834 5835 5836 5837 5839 5840 5842 5842 5842 5842 5843 5843 5844 5845 5844 5843 5843 5843 5843 5843 5842 5841 5841 5840 5839 5838 5837 5836 5835
5824 5825 5826 5827 5828 5828 5829 5830 5831 5834 5835 5836 5836 5837 5837 5838 5838 5839 5839 5839 5839 5839 5838 5838 5837 5836 5835 5835 5834 5833 5831 5830 5830
5817 5817 5820 5821 5822 5822 5823 5824 5824 5825 5827 5829 5830 5831 5831 5831 5832 5832 5832 5833 5833 5833 5833 5832 5831 5831 5829 5829 5828 5827 5825 5824 5824
5810 5811 5811 5813 5815 5816 5817 5817 5817 5818 5819 5821 5823 5823 5824 5825 5825 5825 5826 5826 5827 5827 5826 5826 5825 5825 5824 5823 5823 5822 5819 5818 5817
5801 5804 5805 5806 5807 5808 5810 5810 5810 5811 5811 5813 5814 5815 5816 5817 5818 5818 5819 5820 5820 5820 5820 5820 5819 5818 5818 5817 5817 5815 5814 5813 5812
5790 5793 5796 5798 5800 5801 5802 5804 5803 5803 5803 5805 5807 5806 5806 5807 5809 5811 5812 5813 5813 5812 5813 5813 5813 5811 5810 5810 5810 5809 5808 5807 5805
5778 5782 5786 5789 5791 5792 5793 5795 5796 5796 5796 5796 5796 5798 5798 5798 5799 5801 5802 5803 5804 5804 5803 5803 5804 5804 5803 5802 5802 5802 5801 5798 5798
5767 5771 5775 5778 5782 5784 5785 5785 5786 5786 5788 5788 5787 5787 5788 5788 5789 5791 5791 5793 5793 5793 5793 5794 5794 5794 5794 5794 5793 5793 5792 5791 5790
5757 5760 5763 5767 5772 5775 5776 5777 5777 5778 5778 5778 5779 5778 5776 5776 5779 5779 5780 5782 5781 5783 5785 5785 5785 5784 5784 5784 5784 5784 5783 5783 5781
5745 5749 5754 5757 5760 5764 5767 5767 5768 5769 5770 5769 5769 5769 5770 5769 5771 5770 5771 5772 5771 5773 5774 5773 5771 5773 5773 5772 5774 5774 5773 5772 5771
5735 5739 5742 5746 5750 5753 5756 5758 5758 5758 5759 5760 5759 5758 5760 5761 5761 5761 5761 5760 5760 5762 5763 5762 5762 5762 5761 5763 5761 5762 5762 5761 5761
5724 5728 5732 5736 5740 5743 5746 5747 5748 5748 5749 5748 5749 5748 5747 5748 5749 5749 5750 5749 5750 5750 5750 5751 5752 5752 5751 5752 5750 5751 5750 5749 5748
5715 5718 5722 5726 5728 5732 5734 5737 5738 5739 5739 5738 5737 5737 5737 5736 5737 5737 5738 5738 5738 5739 5739 5740 5740 5740 5739 5738 5736 5734 5735 5735 5738